Hourly Weather Roundup
Issued by NWS Central Illinois

Home | Current Version | Previous Version | Text Only | Print | Product List | Glossary On
Versions: 1 2 3 4 5 6 7 8 9 10 11 12 13 14 15 16 17 18 19 20 21 22 23 24 25 26 27 28 29 30 31 32 33 34 35 36 37 38 39 40 41 42 43 44 45 46 47 48 49 50
839
NZUS43 KILX 250010
HWRILX

AREA WEATHER ROUNDUP
NATIONAL WEATHER SERVICE, LINCOLN IL
700 PM CDT SAT SEP 24 2016


CITY           SKY/WX    TMP DP  RH WIND       PRES   REMARKS
BLOOMINGTON    PTCLDY    79  66  64 E6        30.06F HX  81
6HR MIN TEMP:  79; 6HR MAX TEMP:  88;

CHAMPAIGN      PTCLDY    79  67  66 E8        30.06S HX  81
6HR MIN TEMP:  79; 6HR MAX TEMP:  90;

DANVILLE       CLEAR     77  67  70 NE6       30.06S
6HR MIN TEMP:  77; 6HR MAX TEMP:  86;

DECATUR        CLEAR     81  63  54 S7        30.04F HX  82
6HR MIN TEMP:  81; 6HR MAX TEMP:  91;

EFFINGHAM      CLEAR     76  71  85 CALM      30.06S
FLORA          CLEAR     80  70  71 CALM      30.04F HX  83
6HR MIN TEMP:  78; 6HR MAX TEMP:  91;

GALESBURG      CLEAR    N/A N/A N/A MISG        N/A
JACKSONVILLE   CLEAR     82  65  55 S3        30.02S HX  83
6HR MIN TEMP:  82; 6HR MAX TEMP:  90;

LACON          CLEAR     77  66  69 E7        30.04S
6HR MIN TEMP:  77; 6HR MAX TEMP:  85;

LAWRENCEVILLE  PTCLDY    79  67  66 NE6       30.05F HX  81
6HR MIN TEMP:  79; 6HR MAX TEMP:  91;

LITCHFIELD     CLEAR     79  65  62 SE5       30.03S HX  81
$$


CITY           SKY/WX    TMP DP  RH WIND       PRES   REMARKS
LINCOLN        NOT AVBL
MACOMB         CLEAR     80  66  62 E6        30.04S HX  81
MATTOON        CLEAR     78  65  63 SE3       30.04F HX  80
6HR MIN TEMP:  78; 6HR MAX TEMP:  88;

MT CARMEL AP   CLEAR     80  63  55 NE3       30.04F HX  82
6HR MIN TEMP:  80; 6HR MAX TEMP:  90;

OLNEY-NOBLE AP CLEAR     75  70  83 CALM      30.05S
PARIS          CLEAR     78  69  73 CALM      30.07F HX  80
6HR MIN TEMP:  78; 6HR MAX TEMP:  89;

PEORIA         CLEAR     78  70  76 E6        30.03F HX  80
6HR MIN TEMP:  78; 6HR MAX TEMP:  87;

PONTIAC        CLEAR     79  69  73 E6        30.06F HX  81
RANTOUL        CLEAR     81  68  64 E8        30.07S HAZE    HX  84
6HR MIN TEMP:  81; 6HR MAX TEMP:  89;

ROBINSON       CLEAR     77  68  73 E6        30.06F
6HR MIN TEMP:  77; 6HR MAX TEMP:  89;

SPRINGFIELD    CLEAR     82  63  52 SE6       30.02F HX  83
6HR MIN TEMP:  82; 6HR MAX TEMP:  91;

TAYLORVILLE    CLEAR     79  64  60 SE5       30.03F HX  80
$$

...REGIONAL REPORTS...


CITY           SKY/WX    TMP DP  RH WIND       PRES   REMARKS
CHICAGO O`HARE PTCLDY    69  62  78 E8        30.12F
KANKAKEE       CLEAR     75  66  72 E7        30.09S
MOLINE         CLEAR     75  68  78 E7        30.03S
MOUNT STERLING CLEAR     78  67  68 CALM      30.01S
MOUNT VERNON   CLEAR     75  68  78 CALM      30.04F
PITTSFIELD     CLEAR     80  67  63 CALM      30.03R HX  83
QUINCY         CLEAR     81  65  58 SE3       30.01S HX  83
ROCKFORD       CLEAR     71  63  75 E6        30.11S
$$


CITY           SKY/WX    TMP DP  RH WIND       PRES   REMARKS
BURLINGTON     CLEAR     80  66  62 SE6       30.01S HX  82
CEDAR RAPIDS   CLEAR     76  70  82 E9        30.01F
DES MOINES     CLOUDY    83  68  60 SE12      29.95S HX  86
KIRKSVILLE     CLEAR     78  67  68 SE6       30.01S HX  80
OTTUMWA        CLEAR     78  66  66 SE6       29.99R HX  80
ST LOUIS       PTCLDY    87  62  43 S5        30.01F HX  87
$$


CITY           SKY/WX    TMP DP  RH WIND       PRES   REMARKS
TERRE HAUTE    CLEAR     77  67  71 E6        30.07F
EVANSVILLE     CLEAR     80  67  64 N3        30.04F HX  82
INDIANAPOLIS   PTCLDY    76  67  73 NE10      30.09F
LAFAYETTE      CLEAR     74  66  76 E9        30.09F
MADISON        PTCLDY    67  61  81 SE8       30.12R
MILWAUKEE      MOCLDY    67  59  75 E9        30.14F
$$






USA.gov is the U.S. government's official web portal to all federal, state and local government web resources and services.